Location: Mercogliano
(40.9167°N, 14.7333°E)
Time: 07:34:48
(UTC+00:00)

OBJECT-B - Pass Details

Date: 18 September 2020
Orbit: 421 x 433 km, 97.0° (Epoch: 09 October)

Event Time Altitude Azimuth Distance (km) Brightness Sun altitude
Exits shadow 19:01:25 23° 7° (N) 940 2.6 -22.3°
Drops below altitude 10° 19:02:51 10° 358° (N) 1,517 3.9 -22.5°
Sets 19:04:54 0° 354° (N) 2,389 5.0 -22.9°
